WX4FUN-13 Weather Reports


Display with metric or nautical units.
time (UTC)temp
F
wind
direction
speed
MPH
gust
MPH
rain 1hr
in
rain 24hr
in
rain mn
in
humidity
%
barometer
mb
20260506174909 62 303 2.0 5.0 0.06 0.08 0.07 88 1008.2
20260506173911 62 227 2.0 4.0 0.06 0.07 0.06 86 1008.2
20260506172911 63 225 2.0 3.0 0.04 0.06 0.04 83 1008.7
20260506171910 64 236 2.0 5.0 0.02 0.04 0.02 81 1008.9
20260506170859 65 218 2.0 6.0 0.02 0.04 0.02 78 1009.1
20260506165900 66 224 3.0 6.0 0.02 0.03 0.02 75 1009.1
20260506164858 67 236 2.0 6.0 0.01 0.03 0.01 74 1008.9
20260506163857 68 262 3.0 5.0 0.00 0.02 0.00 71 1008.9
20260506162859 69 337 3.0 5.0 0.00 0.02 0.00 69 1008.7
20260506161858 69 245 2.0 4.0 0.00 0.02 0.00 68 1008.7
20260506160859 69 245 2.0 7.0 0.00 0.02 0.00 67 1008.9
20260506155842 69 255 3.0 7.0 0.00 0.02 0.00 67 1009.2
20260506154843 68 239 2.0 4.0 0.00 0.02 0.00 68 1009.3
20260506153843 68 255 3.0 6.0 0.00 0.02 0.00 68 1009.3
20260506152831 68 265 2.0 5.0 0.00 0.02 0.00 68 1009.4
20260506151829 68 247 2.0 5.0 0.00 0.02 0.00 69 1009.6
20260506150829 67 244 3.0 5.0 0.00 0.02 0.00 70 1009.6
20260506145821 67 19 2.0 6.0 0.00 0.02 0.00 72 1009.7
20260506144811 66 209 3.0 6.0 0.00 0.02 0.00 73 1009.8
20260506143815 66 226 3.0 5.0 0.00 0.02 0.00 73 1009.9
20260506142814 66 245 2.0 5.0 0.00 0.02 0.00 73 1009.9
20260506141811 65 253 2.0 6.0 0.00 0.02 0.00 74 1010.0
20260506140814 65 253 2.0 4.0 0.00 0.02 0.00 75 1009.9
20260506135814 65 234 2.0 4.0 0.00 0.02 0.00 75 1009.9
20260506134800 64 231 2.0 4.0 0.00 0.02 0.00 77 1009.8
20260506133800 64 246 2.0 3.0 0.00 0.02 0.00 77 1009.7
20260506132759 63 221 2.0 4.0 0.00 0.02 0.00 78 1009.7
20260506131800 63 211 2.0 4.0 0.00 0.02 0.00 78 1009.9
20260506130801 62 293 2.0 4.0 0.00 0.02 0.00 79 1010.0
20260506125800 62 252 2.0 4.0 0.00 0.02 0.00 80 1010.0
20260506124747 62 255 2.0 3.0 0.00 0.02 0.00 80 1010.1
20260506123745 61 290 2.0 5.0 0.00 0.02 0.00 81 1010.3
20260506122747 61 230 2.0 5.0 0.00 0.02 0.00 80 1010.4
20260506121746 61 269 2.0 4.0 0.00 0.02 0.00 81 1010.4
20260506120746 61 242 2.0 4.0 0.00 0.02 0.00 82 1010.1
20260506115731 61 216 2.0 4.0 0.00 0.02 0.00 81 1010.4
20260506114731 61 218 2.0 4.0 0.00 0.02 0.00 82 1010.2
20260506113733 60 260 2.0 5.0 0.00 0.02 0.00 82 1010.4
20260506112718 60 238 2.0 3.0 0.00 0.02 0.00 82 1010.3
20260506111716 60 236 1.0 2.0 0.00 0.02 0.00 83 1010.1
20260506110716 59 234 2.0 3.0 0.00 0.02 0.00 84 1010.6
20260506105702 58 223 1.0 2.0 0.00 0.02 0.00 85 1010.6
20260506104647 58 232 1.0 2.0 0.00 0.02 0.00 85 1010.5
20260506103634 58 231 1.0 2.0 0.00 0.02 0.00 85 1010.6
20260506102634 58 224 1.0 2.0 0.00 0.02 0.00 85 1010.4
20260506101632 58 223 1.0 2.0 0.00 0.02 0.00 85 1010.2
20260506100633 58 233 1.0 2.0 0.00 0.02 0.00 85 1010.2
20260506095633 58 235 1.0 3.0 0.00 0.02 0.00 85 1010.2
20260506094618 58 230 1.0 3.0 0.00 0.02 0.00 85 1010.2
20260506093622 58 229 0.0 1.0 0.00 0.02 0.00 84 1010.3
20260506092618 58 253 1.0 2.0 0.00 0.02 0.00 84 1010.1
20260506091618 58 0 1.0 2.0 0.00 0.02 0.00 84 1010.2
20260506090618 58 223 1.0 3.0 0.00 0.02 0.00 83 1010.3
20260506085605 58 224 1.0 2.0 0.00 0.02 0.00 83 1010.2
20260506084605 58 224 1.0 2.0 0.00 0.02 0.00 82 1010.3
20260506083605 59 214 0.0 1.0 0.00 0.02 0.00 82 1010.4
20260506082605 59 222 0.0 1.0 0.00 0.02 0.00 82 1010.4
20260506081605 59 231 0.0 2.0 0.00 0.02 0.00 81 1010.3
20260506080605 59 0 0.0 2.0 0.00 0.02 0.00 81 1010.3
20260506072551 60 242 1.0 3.0 0.00 0.02 0.00 79 1010.1
20260506071552 60 235 2.0 2.0 0.00 0.02 0.00 78 1010.1
20260506070535 61 229 2.0 3.0 0.00 0.02 0.00 78 1010.1
20260506061521 62 258 2.0 4.0 0.00 0.02 0.00 75 1009.9
20260506060506 62 219 3.0 5.0 0.00 0.02 0.00 74 1009.9
20260506050423 63 140 2.0 4.0 0.00 0.02 0.00 69 1010.2
20260506044422 63 213 2.0 3.0 0.00 0.02 0.00 68 1010.2
20260506043422 63 264 2.0 6.0 0.00 0.02 0.00 68 1010.1
20260506042422 63 248 2.0 5.0 0.00 0.02 0.00 68 1010.1
20260506041422 64 253 2.0 4.0 0.00 0.02 0.00 67 1010.1
20260506040423 64 224 2.0 6.0 0.00 0.02 0.00 67 1010.1
20260506035423 64 232 2.0 4.0 0.00 0.02 0.02 67 1010.3
20260506034424 64 239 2.0 6.0 0.00 0.02 0.02 66 1010.3
20260506033424 64 189 2.0 6.0 0.00 0.02 0.02 67 1010.4
20260506032423 63 210 2.0 6.0 0.00 0.02 0.02 67 1010.4
20260506031422 64 302 1.0 4.0 0.00 0.02 0.02 67 1010.5
20260506030423 64 234 1.0 3.0 0.00 0.02 0.02 66 1010.5
20260506025423 64 230 1.0 4.0 0.00 0.02 0.02 66 1010.5
20260506024423 64 218 1.0 4.0 0.00 0.02 0.02 66 1010.4
20260506023424 64 290 1.0 3.0 0.00 0.02 0.02 65 1010.3
20260506022422 64 231 1.0 4.0 0.00 0.02 0.02 65 1010.3
20260506021424 64 221 1.0 4.0 0.00 0.02 0.02 64 1010.2
20260506020420 64 218 2.0 4.0 0.00 0.02 0.02 64 1010.1
20260506015420 65 247 1.0 4.0 0.00 0.02 0.02 63 1010.2
20260506014422 65 269 1.0 3.0 0.00 0.02 0.02 63 1010.1
20260506013420 65 258 1.0 3.0 0.00 0.02 0.02 62 1010.0
20260506012420 66 347 2.0 5.0 0.00 0.02 0.02 62 1009.9
20260506011419 66 217 2.0 6.0 0.00 0.02 0.02 61 1009.7
20260506010419 67 248 2.0 5.0 0.00 0.02 0.02 60 1009.6
20260506005419 67 0 2.0 4.0 0.00 0.02 0.02 60 1009.6
20260506004415 68 227 2.0 5.0 0.00 0.02 0.02 59 1009.5
20260506003416 68 243 2.0 7.0 0.00 0.02 0.02 58 1009.3
20260506002413 69 233 2.0 5.0 0.00 0.02 0.02 58 1009.3
20260506001415 69 220 2.0 5.0 0.00 0.02 0.02 57 1009.1
20260506000416 69 256 2.0 5.0 0.00 0.02 0.02 56 1008.8
20260505235414 70 216 2.0 6.0 0.00 0.02 0.02 56 1008.6
20260505234414 70 221 2.0 5.0 0.00 0.02 0.02 55 1008.5
20260505233412 71 223 4.0 8.0 0.00 0.02 0.02 54 1008.4
20260505232411 71 234 3.0 8.0 0.00 0.02 0.02 54 1008.2
20260505231411 72 245 3.0 8.0 0.00 0.02 0.02 54 1008.0
20260505230411 72 212 2.0 6.0 0.00 0.02 0.02 53 1007.9
20260505225413 73 238 2.0 7.0 0.00 0.02 0.02 52 1007.8
20260505224411 74 259 2.0 6.0 0.00 0.02 0.02 51 1007.8
20260505223411 74 232 3.0 9.0 0.00 0.02 0.02 50 1007.6
20260505222410 75 234 2.0 9.0 0.00 0.02 0.02 50 1007.5
20260505221410 76 280 3.0 6.0 0.00 0.02 0.02 49 1007.4
20260505220411 77 230 2.0 6.0 0.00 0.02 0.02 47 1007.4
20260505215411 77 230 3.0 7.0 0.00 0.02 0.02 48 1007.3
20260505214407 77 210 3.0 7.0 0.00 0.02 0.02 47 1007.2
20260505213407 78 241 2.0 6.0 0.00 0.02 0.02 47 1007.3
20260505212407 78 224 3.0 8.0 0.01 0.02 0.02 47 1007.4
20260505211409 78 232 3.0 7.0 0.01 0.02 0.02 47 1007.3
20260505210408 78 306 3.0 7.0 0.01 0.01 0.01 46 1007.3
20260505205407 79 236 3.0 7.0 0.01 0.01 0.01 45 1007.2
20260505204405 79 231 3.0 9.0 0.01 0.01 0.01 45 1006.9
20260505203406 79 245 3.0 8.0 0.01 0.01 0.01 45 1006.9
20260505202406 79 243 3.0 7.0 0.01 0.01 0.01 45 1006.9
20260505201406 81 233 3.0 9.0 0.01 0.01 0.01 44 1007.0
20260505200406 81 224 5.0 9.0 0.00 0.00 0.00 42 1007.0
20260505195402 81 220 4.0 12.0 0.00 0.00 0.00 42 1007.0
20260505194404 81 236 4.0 9.0 0.00 0.00 0.00 42 1006.8
20260505193402 81 236 4.0 9.0 0.00 0.00 0.00 41 1006.9
20260505192402 82 250 4.0 9.0 0.00 0.00 0.00 41 1007.0
20260505191403 82 254 2.0 6.0 0.00 0.00 0.00 42 1006.9
20260505190403 82 256 3.0 8.0 0.00 0.00 0.00 43 1007.2
20260505185402 82 252 3.0 8.0 0.00 0.00 0.00 41 1007.1
20260505184401 82 229 4.0 9.0 0.00 0.00 0.00 41 1007.2
20260505183403 82 264 3.0 7.0 0.00 0.00 0.00 42 1007.4
20260505182401 82 211 3.0 7.0 0.00 0.00 0.00 43 1007.5
20260505181402 83 191 2.0 7.0 0.00 0.00 0.00 41 1007.5
20260505180401 82 279 3.0 11.0 0.00 0.00 0.00 42 1007.6
20260505175359 81 220 3.0 9.0 0.00 0.00 0.00 43 1007.8